When you browse on this site, cookies collect data to enhance your experience and personalize the content and advertising you see.
Visit our Privacy Policy to learn more. By continuing to use the site, you agree to this use of cookies and data.
  • In United Kingdom
  • List of Countries
  • For 7 days
  • Water Temperature
  • Satellite Maps
  • Weather Map
  • Weather Widgets
  • user-avatar
    Login

    Hourly Weather Mantes-la-Ville

    Today, 16 December, Sunday

    Time Temperature Precipitation Wind Pressure Humidity
    00:00 +3°C° 0.1 mm 3 mps 751 mmHg 98%
    01:00 +3°C° 0 mm 3 mps 752 mmHg 97%
    02:00 +3°C° 0 mm 3 mps 752 mmHg 97%
    03:00 +2°C° 0 mm 3 mps 753 mmHg 96%
    04:00 +2°C° 0 mm 3 mps 753 mmHg 96%
    05:00 +2°C° 0 mm 3 mps 753 mmHg 95%
    06:00 +2°C° 0 mm 3 mps 753 mmHg 95%
    07:00 +2°C° 0 mm 3 mps 754 mmHg 95%
    08:00 +2°C° 0 mm 3 mps 754 mmHg 95%
    09:00 +2°C° 0 mm 3 mps 754 mmHg 94%
    10:00 +3°C° 0 mm 3 mps 754 mmHg 94%
    11:00 +4°C° 0 mm 3 mps 754 mmHg 93%
    12:00 +5°C° 0 mm 3 mps 754 mmHg 93%
    13:00 +5°C° 0 mm 3 mps 754 mmHg 93%
    14:00 +4°C° 0 mm 3 mps 754 mmHg 94%
    15:00 +4°C° 0 mm 3 mps 753 mmHg 94%
    16:00 +4°C° 0.3 mm 3 mps 753 mmHg 95%
    17:00 +4°C° 0.3 mm 3 mps 753 mmHg 95%
    18:00 +4°C° 0.3 mm 3 mps 753 mmHg 96%
    19:00 +5°C° 1.3 mm 4 mps 753 mmHg 95%
    20:00 +5°C° 1.3 mm 5 mps 753 mmHg 95%
    21:00 +4°C° 1.3 mm 6 mps 753 mmHg 94%
    22:00 +4°C° 0.3 mm 6 mps 753 mmHg 93%
    23:00 +5°C° 0.3 mm 6 mps 754 mmHg 92%

    Tomorrow, 17 December, Monday

    Time Temperature Precipitation Wind Pressure Humidity
    00:00 +5°C° 0.3 mm 6 mps 754 mmHg 91%
    01:00 +5°C° 0 mm 6 mps 755 mmHg 90%
    02:00 +4°C° 0 mm 6 mps 756 mmHg 89%
    03:00 +4°C° 0 mm 6 mps 756 mmHg 88%
    04:00 +5°C° 0 mm 5 mps 757 mmHg 89%
    05:00 +5°C° 0 mm 5 mps 758 mmHg 89%
    06:00 +4°C° 0 mm 4 mps 758 mmHg 90%
    07:00 +4°C° 0 mm 4 mps 759 mmHg 90%
    08:00 +4°C° 0 mm 4 mps 760 mmHg 90%
    09:00 +4°C° 0 mm 4 mps 761 mmHg 91%
    10:00 +5°C° 0 mm 4 mps 761 mmHg 88%
    11:00 +6°C° 0 mm 4 mps 762 mmHg 85%
    12:00 +7°C° 0 mm 4 mps 762 mmHg 82%
    13:00 +8°C° 0 mm 3 mps 762 mmHg 83%
    14:00 +8°C° 0 mm 3 mps 762 mmHg 85%
    15:00 +8°C° 0 mm 2 mps 762 mmHg 86%
    16:00 +7°C° 0 mm 3 mps 763 mmHg 88%
    17:00 +5°C° 0 mm 3 mps 763 mmHg 90%
    18:00 +5°C° 0 mm 3 mps 763 mmHg 92%
    19:00 +5°C° 0 mm 3 mps 763 mmHg 92%
    20:00 +5°C° 0 mm 3 mps 763 mmHg 93%
    21:00 +5°C° 0 mm 3 mps 764 mmHg 93%
    22:00 +5°C° 0 mm 4 mps 763 mmHg 94%
    23:00 +5°C° 0 mm 4 mps 763 mmHg 94%

    Day after tomorrow, 18 December, Tuesday

    Time Temperature Precipitation Wind Pressure Humidity
    00:00 +5°C° 0 mm 4 mps 763 mmHg 95%
    01:00 +4°C° 0 mm 4 mps 763 mmHg 95%
    02:00 +4°C° 0 mm 4 mps 762 mmHg 95%
    03:00 +4°C° 0 mm 4 mps 762 mmHg 96%
    04:00 +3°C° 0 mm 5 mps 761 mmHg 94%
    05:00 +3°C° 0 mm 5 mps 761 mmHg 92%
    06:00 +3°C° 0 mm 5 mps 760 mmHg 91%
    07:00 +3°C° 0 mm 6 mps 760 mmHg 87%
    08:00 +3°C° 0 mm 6 mps 759 mmHg 83%
    09:00 +3°C° 0 mm 6 mps 759 mmHg 79%
    10:00 +4°C° 0 mm 6 mps 758 mmHg 73%
    11:00 +5°C° 0 mm 7 mps 757 mmHg 68%
    12:00 +6°C° 0 mm 7 mps 756 mmHg 62%
    13:00 +6°C° 0 mm 7 mps 756 mmHg 62%
    14:00 +7°C° 0 mm 6 mps 755 mmHg 63%
    15:00 +7°C° 0 mm 6 mps 754 mmHg 63%
    16:00 +7°C° 0 mm 6 mps 754 mmHg 65%
    17:00 +7°C° 0 mm 6 mps 754 mmHg 66%
    18:00 +5°C° 0 mm 6 mps 753 mmHg 68%
    19:00 +7°C° 0 mm 6 mps 754 mmHg 70%
    20:00 +6°C° 0 mm 7 mps 754 mmHg 73%
    21:00 +6°C° 0 mm 7 mps 754 mmHg 76%
    22:00 +6°C° 0.6 mm 7 mps 754 mmHg 80%
    23:00 +7°C° 0.6 mm 6 mps 754 mmHg 85%

    19 December, Wednesday

    Time Temperature Precipitation Wind Pressure Humidity
    00:00 +7°C° 0.6 mm 6 mps 754 mmHg 89%
    01:00 +7°C° 0.2 mm 5 mps 754 mmHg 91%
    02:00 +7°C° 0.2 mm 5 mps 755 mmHg 92%
    03:00 +7°C° 0.2 mm 4 mps 755 mmHg 93%
    04:00 +7°C° 0 mm 4 mps 755 mmHg 93%
    05:00 +6°C° 0 mm 4 mps 755 mmHg 93%
    06:00 +6°C° 0 mm 4 mps 755 mmHg 94%
    07:00 +6°C° 0 mm 4 mps 756 mmHg 93%
    08:00 +6°C° 0 mm 4 mps 756 mmHg 93%
    09:00 +6°C° 0 mm 4 mps 756 mmHg 93%
    10:00 +7°C° 0 mm 4 mps 756 mmHg 88%
    11:00 +8°C° 0 mm 4 mps 756 mmHg 84%
    12:00 +9°C° 0 mm 5 mps 756 mmHg 79%
    13:00 +8°C° 0 mm 4 mps 756 mmHg 81%
    14:00 +9°C° 0 mm 3 mps 756 mmHg 82%
    15:00 +9°C° 0 mm 3 mps 755 mmHg 84%
    16:00 +8°C° 0.1 mm 3 mps 756 mmHg 86%
    17:00 +8°C° 0.1 mm 2 mps 756 mmHg 88%
    18:00 +7°C° 0.1 mm 2 mps 756 mmHg 91%
    19:00 +7°C° 0 mm 2 mps 757 mmHg 91%
    20:00 +6°C° 0 mm 2 mps 757 mmHg 92%
    21:00 +6°C° 0 mm 2 mps 757 mmHg 92%
    22:00 +5°C° 0 mm 2 mps 757 mmHg 92%
    23:00 +5°C° 0 mm 2 mps 757 mmHg 92%

    20 December, Thursday

    Time Temperature Precipitation Wind Pressure Humidity
    00:00 +4°C° 0 mm 3 mps 758 mmHg 93%
    01:00 +3°C° 0 mm 3 mps 758 mmHg 93%
    02:00 +3°C° 0 mm 3 mps 758 mmHg 93%
    03:00 +3°C° 0 mm 3 mps 758 mmHg 92%
    04:00 +3°C° 0 mm 3 mps 759 mmHg 92%
    05:00 +3°C° 0 mm 3 mps 759 mmHg 92%
    06:00 +3°C° 0 mm 3 mps 759 mmHg 92%
    07:00 +3°C° 0 mm 3 mps 759 mmHg 92%
    08:00 +3°C° 0 mm 3 mps 760 mmHg 91%
    09:00 +3°C° 0 mm 4 mps 760 mmHg 90%
    10:00 +4°C° 0 mm 4 mps 760 mmHg 87%
    11:00 +5°C° 0 mm 4 mps 760 mmHg 83%
    12:00 +7°C° 0 mm 4 mps 761 mmHg 80%
    13:00 +6°C° 0 mm 4 mps 761 mmHg 81%
    14:00 +7°C° 0 mm 3 mps 761 mmHg 82%
    15:00 +7°C° 0 mm 3 mps 761 mmHg 83%
    16:00 +7°C° 0 mm 3 mps 761 mmHg 85%
    17:00 +5°C° 0 mm 3 mps 761 mmHg 88%
    18:00 +4°C° 0 mm 3 mps 762 mmHg 91%
    19:00 +4°C° 0 mm 3 mps 762 mmHg 90%
    20:00 +5°C° 0 mm 4 mps 762 mmHg 89%
    21:00 +5°C° 0 mm 4 mps 762 mmHg 89%
    22:00 +5°C° 0 mm 4 mps 762 mmHg 89%
    23:00 +5°C° 0 mm 5 mps 761 mmHg 90%

    21 December, Friday

    Time Temperature Precipitation Wind Pressure Humidity
    00:00 +6°C° 0 mm 5 mps 761 mmHg 90%
    01:00 +5°C° 0.2 mm 6 mps 760 mmHg 90%
    02:00 +7°C° 0.2 mm 6 mps 760 mmHg 91%
    03:00 +8°C° 0.2 mm 7 mps 759 mmHg 91%
    04:00 +8°C° 1 mm 7 mps 759 mmHg 91%
    05:00 +9°C° 1 mm 8 mps 758 mmHg 90%
    06:00 +8°C° 1 mm 9 mps 757 mmHg 89%
    07:00 +10°C° 1.1 mm 9 mps 757 mmHg 89%
    08:00 +10°C° 1.1 mm 8 mps 757 mmHg 89%
    09:00 +11°C° 1.1 mm 8 mps 757 mmHg 88%
    10:00 +11°C° 1.4 mm 9 mps 757 mmHg 88%
    11:00 +11°C° 1.4 mm 9 mps 756 mmHg 88%
    12:00 +11°C° 1.4 mm 9 mps 756 mmHg 87%
    13:00 +12°C° 0.8 mm 9 mps 756 mmHg 87%
    14:00 +12°C° 0.8 mm 9 mps 756 mmHg 87%
    15:00 +12°C° 0.8 mm 8 mps 756 mmHg 87%
    16:00 +12°C° 0.7 mm 9 mps 756 mmHg 86%
    17:00 +12°C° 0.7 mm 9 mps 756 mmHg 86%
    18:00 +12°C° 0.7 mm 9 mps 756 mmHg 85%
    19:00 +12°C° 0.2 mm 9 mps 756 mmHg 85%
    20:00 +12°C° 0.2 mm 9 mps 756 mmHg 84%
    21:00 +12°C° 0.2 mm 8 mps 756 mmHg 84%
    22:00 +12°C° 0.1 mm 8 mps 756 mmHg 84%
    23:00 +11°C° 0.1 mm 8 mps 757 mmHg 84%
    Show more